Year,Month,Day,Hour,Minute,Value (Times are PST for temperature in C)
2016,06,29,00,00,15.90
2016,06,29,00,01,15.90
2016,06,29,00,02,15.90
2016,06,29,00,03,15.90
2016,06,29,00,04,15.90
2016,06,29,00,05,15.90
2016,06,29,00,06,15.90
2016,06,29,00,07,15.90
2016,06,29,00,08,15.90
2016,06,29,00,09,15.90
2016,06,29,00,10,15.90
2016,06,29,00,11,16.00
2016,06,29,00,12,16.00
2016,06,29,00,13,16.00
2016,06,29,00,14,16.10
2016,06,29,00,15,16.10
2016,06,29,00,16,16.10
2016,06,29,00,17,16.10
2016,06,29,00,18,16.10
2016,06,29,00,19,16.10
2016,06,29,00,20,16.10
2016,06,29,00,21,16.10
2016,06,29,00,22,16.10
2016,06,29,00,23,16.00
2016,06,29,00,24,15.90
2016,06,29,00,25,15.90
2016,06,29,00,26,15.90
2016,06,29,00,27,15.90
2016,06,29,00,28,15.90
2016,06,29,00,29,15.80
2016,06,29,00,30,15.80
2016,06,29,00,31,15.80
2016,06,29,00,32,15.80
2016,06,29,00,33,15.70
2016,06,29,00,34,15.70
2016,06,29,00,35,15.70
2016,06,29,00,36,15.70
2016,06,29,00,37,15.70
2016,06,29,00,38,15.70
2016,06,29,00,39,15.70
2016,06,29,00,40,15.70
2016,06,29,00,41,15.60
2016,06,29,00,42,15.60
2016,06,29,00,43,15.60
2016,06,29,00,44,15.50
2016,06,29,00,45,15.50
2016,06,29,00,46,15.50
2016,06,29,00,47,15.40
2016,06,29,00,48,15.40
2016,06,29,00,49,15.40
2016,06,29,00,50,15.30
2016,06,29,00,51,15.30
2016,06,29,00,52,15.30
2016,06,29,00,53,15.30
2016,06,29,00,54,15.30
2016,06,29,00,55,15.30
2016,06,29,00,56,15.30
2016,06,29,00,57,15.30
2016,06,29,00,58,15.30
2016,06,29,00,59,15.30
2016,06,29,01,00,15.30
2016,06,29,01,01,15.30
2016,06,29,01,02,15.30
2016,06,29,01,03,15.30
2016,06,29,01,04,15.30
2016,06,29,01,05,15.30
2016,06,29,01,06,15.20
2016,06,29,01,07,15.20
2016,06,29,01,08,15.20
2016,06,29,01,09,15.20
2016,06,29,01,10,15.20
2016,06,29,01,11,15.20
2016,06,29,01,12,15.20
2016,06,29,01,13,15.10
2016,06,29,01,14,15.10
2016,06,29,01,15,15.10
2016,06,29,01,16,15.10
2016,06,29,01,17,15.10
2016,06,29,01,18,15.10
2016,06,29,01,19,15.10
2016,06,29,01,20,15.10
2016,06,29,01,21,15.10
2016,06,29,01,22,15.10
2016,06,29,01,23,15.10
2016,06,29,01,24,15.10
2016,06,29,01,25,15.00
2016,06,29,01,26,15.00
2016,06,29,01,27,15.00
2016,06,29,01,28,15.00
2016,06,29,01,29,15.00
2016,06,29,01,30,15.00
2016,06,29,01,31,14.90
2016,06,29,01,32,14.90
2016,06,29,01,33,14.90
2016,06,29,01,34,14.90
2016,06,29,01,35,14.90
2016,06,29,01,36,14.90
2016,06,29,01,37,14.90
2016,06,29,01,38,14.80
2016,06,29,01,39,14.80
2016,06,29,01,40,14.80
2016,06,29,01,41,14.80
2016,06,29,01,42,14.80
2016,06,29,01,43,14.80
2016,06,29,01,44,14.80
2016,06,29,01,45,14.70
2016,06,29,01,46,14.70
2016,06,29,01,47,14.70
2016,06,29,01,48,14.70
2016,06,29,01,49,14.70
2016,06,29,01,50,14.70
2016,06,29,01,51,14.70
2016,06,29,01,52,14.70
2016,06,29,01,53,14.70
2016,06,29,01,54,14.70
2016,06,29,01,55,14.70
2016,06,29,01,56,14.70
2016,06,29,01,57,14.70
2016,06,29,01,58,14.70
2016,06,29,01,59,14.70
2016,06,29,02,00,14.70
2016,06,29,02,01,14.70
2016,06,29,02,02,14.70
2016,06,29,02,03,14.70
2016,06,29,02,04,14.70
2016,06,29,02,05,14.70
2016,06,29,02,06,14.70
2016,06,29,02,07,14.70
2016,06,29,02,08,14.70
2016,06,29,02,09,14.70
2016,06,29,02,10,14.70
2016,06,29,02,11,14.70
2016,06,29,02,12,14.70
2016,06,29,02,13,14.70
2016,06,29,02,14,14.70
2016,06,29,02,15,14.70
2016,06,29,02,16,14.70
2016,06,29,02,17,14.70
2016,06,29,02,18,14.70
2016,06,29,02,19,14.70
2016,06,29,02,20,14.70
2016,06,29,02,21,14.70
2016,06,29,02,22,14.70
2016,06,29,02,23,14.70
2016,06,29,02,24,14.70
2016,06,29,02,25,14.70
2016,06,29,02,26,14.80
2016,06,29,02,27,14.80
2016,06,29,02,28,14.80
2016,06,29,02,29,14.80
2016,06,29,02,30,14.80
2016,06,29,02,31,14.80
2016,06,29,02,32,14.80
2016,06,29,02,33,14.80
2016,06,29,02,34,14.80
2016,06,29,02,35,14.80
2016,06,29,02,36,14.80
2016,06,29,02,37,14.80
2016,06,29,02,38,14.80
2016,06,29,02,39,14.80
2016,06,29,02,40,14.70
2016,06,29,02,41,14.70
2016,06,29,02,42,14.70
2016,06,29,02,43,14.70
2016,06,29,02,44,14.70
2016,06,29,02,45,14.70
2016,06,29,02,46,14.70
2016,06,29,02,47,14.70
2016,06,29,02,48,14.60
2016,06,29,02,49,14.60
2016,06,29,02,50,14.60
2016,06,29,02,51,14.60
2016,06,29,02,52,14.60
2016,06,29,02,53,14.60
2016,06,29,02,54,14.60
2016,06,29,02,55,14.60
2016,06,29,02,56,14.60
2016,06,29,02,57,14.60
2016,06,29,02,58,14.60
2016,06,29,02,59,14.60
2016,06,29,03,00,14.60
2016,06,29,03,01,14.60
2016,06,29,03,02,14.60
2016,06,29,03,03,14.60
2016,06,29,03,04,14.60
2016,06,29,03,05,14.60
2016,06,29,03,06,14.60
2016,06,29,03,07,14.60
2016,06,29,03,08,14.60
2016,06,29,03,09,14.60
2016,06,29,03,10,14.60
2016,06,29,03,11,14.60
2016,06,29,03,12,14.60
2016,06,29,03,13,14.60
2016,06,29,03,14,14.60
2016,06,29,03,15,14.60
2016,06,29,03,16,14.60
2016,06,29,03,17,14.60
2016,06,29,03,18,14.60
2016,06,29,03,19,14.60
2016,06,29,03,20,14.60
2016,06,29,03,21,14.60
2016,06,29,03,22,14.60
2016,06,29,03,23,14.60
2016,06,29,03,24,14.60
2016,06,29,03,25,14.50
2016,06,29,03,26,14.50
2016,06,29,03,27,14.50
2016,06,29,03,28,14.40
2016,06,29,03,29,14.40
2016,06,29,03,30,14.40
2016,06,29,03,31,14.40
2016,06,29,03,32,14.40
2016,06,29,03,33,14.40
2016,06,29,03,34,14.40
2016,06,29,03,35,14.40
2016,06,29,03,36,14.30
2016,06,29,03,37,14.30
2016,06,29,03,38,14.30
2016,06,29,03,39,14.30
2016,06,29,03,40,14.30
2016,06,29,03,41,14.30
2016,06,29,03,42,14.30
2016,06,29,03,43,14.30
2016,06,29,03,44,14.30
2016,06,29,03,45,14.30
2016,06,29,03,46,14.30
2016,06,29,03,47,14.30
2016,06,29,03,48,14.30
2016,06,29,03,49,14.30
2016,06,29,03,50,14.30
2016,06,29,03,51,14.30
2016,06,29,03,52,14.30
2016,06,29,03,53,14.30
2016,06,29,03,54,14.30
2016,06,29,03,55,14.30
2016,06,29,03,56,14.30
2016,06,29,03,57,14.30
2016,06,29,03,58,14.30
2016,06,29,03,59,14.20
2016,06,29,04,00,14.20
2016,06,29,04,01,14.20
2016,06,29,04,02,14.20
2016,06,29,04,03,14.20
2016,06,29,04,04,14.20
2016,06,29,04,05,14.20
2016,06,29,04,06,14.20
2016,06,29,04,07,14.20
2016,06,29,04,08,14.20
2016,06,29,04,09,14.20
2016,06,29,04,10,14.20
2016,06,29,04,11,14.20
2016,06,29,04,12,14.20
2016,06,29,04,13,14.20
2016,06,29,04,14,14.20
2016,06,29,04,15,14.20
2016,06,29,04,16,14.20
2016,06,29,04,17,14.20
2016,06,29,04,18,14.20
2016,06,29,04,19,14.20
2016,06,29,04,20,14.20
2016,06,29,04,21,14.20
2016,06,29,04,22,14.20
2016,06,29,04,23,14.20
2016,06,29,04,24,14.20
2016,06,29,04,25,14.20
2016,06,29,04,26,14.20
2016,06,29,04,27,14.20
2016,06,29,04,28,14.20
2016,06,29,04,29,14.20
2016,06,29,04,30,14.20
2016,06,29,04,31,14.20
2016,06,29,04,32,14.20
2016,06,29,04,33,14.20
2016,06,29,04,34,14.20
2016,06,29,04,35,14.20
2016,06,29,04,36,14.20
2016,06,29,04,37,14.20
2016,06,29,04,38,14.20
2016,06,29,04,39,14.20
2016,06,29,04,40,14.20
2016,06,29,04,41,14.20
2016,06,29,04,42,14.20
2016,06,29,04,43,14.20
2016,06,29,04,44,14.20
2016,06,29,04,45,14.20
2016,06,29,04,46,14.20
2016,06,29,04,47,14.20
2016,06,29,04,48,14.20
2016,06,29,04,49,14.20
2016,06,29,04,50,14.20
2016,06,29,04,51,14.20
2016,06,29,04,52,14.20
2016,06,29,04,53,14.20
2016,06,29,04,54,14.10
2016,06,29,04,55,14.10
2016,06,29,04,56,14.10
2016,06,29,04,57,14.10
2016,06,29,04,58,14.10
2016,06,29,04,59,14.10
2016,06,29,05,00,14.10
2016,06,29,05,01,14.10
2016,06,29,05,02,14.10
2016,06,29,05,03,14.10
2016,06,29,05,04,14.10
2016,06,29,05,05,14.10
2016,06,29,05,06,14.10
2016,06,29,05,07,14.10
2016,06,29,05,08,14.10
2016,06,29,05,09,14.10
2016,06,29,05,10,14.10
2016,06,29,05,11,14.10
2016,06,29,05,12,14.10
2016,06,29,05,13,14.10
2016,06,29,05,14,14.10
2016,06,29,05,15,14.10
2016,06,29,05,16,14.10
2016,06,29,05,17,14.10
2016,06,29,05,18,14.10
2016,06,29,05,19,14.20
2016,06,29,05,20,14.20
2016,06,29,05,21,14.20
2016,06,29,05,22,14.20
2016,06,29,05,23,14.20
2016,06,29,05,24,14.30
2016,06,29,05,25,14.30
2016,06,29,05,26,14.30
2016,06,29,05,27,14.30
2016,06,29,05,28,14.30
2016,06,29,05,29,14.30
2016,06,29,05,30,14.30
2016,06,29,05,31,14.30
2016,06,29,05,32,14.30
2016,06,29,05,33,14.30
2016,06,29,05,34,14.30
2016,06,29,05,35,14.30
2016,06,29,05,36,14.30
2016,06,29,05,37,14.30
2016,06,29,05,38,14.30
2016,06,29,05,39,14.30
2016,06,29,05,40,14.30
2016,06,29,05,41,14.30
2016,06,29,05,42,14.30
2016,06,29,05,43,14.30
2016,06,29,05,44,14.30
2016,06,29,05,45,14.30
2016,06,29,05,46,14.30
2016,06,29,05,47,14.30
2016,06,29,05,48,14.30
2016,06,29,05,49,14.30
2016,06,29,05,50,14.30
2016,06,29,05,51,14.30
2016,06,29,05,52,14.30
2016,06,29,05,53,14.30
2016,06,29,05,54,14.30
2016,06,29,05,55,14.30
2016,06,29,05,56,14.30
2016,06,29,05,57,14.30
2016,06,29,05,58,14.30
2016,06,29,05,59,14.30
2016,06,29,06,00,14.30
2016,06,29,06,01,14.30
2016,06,29,06,02,14.30
2016,06,29,06,03,14.30
2016,06,29,06,04,14.30
2016,06,29,06,05,14.30
2016,06,29,06,06,14.30
2016,06,29,06,07,14.30
2016,06,29,06,08,14.30
2016,06,29,06,09,14.30
2016,06,29,06,10,14.30
2016,06,29,06,11,14.30
2016,06,29,06,12,14.30
2016,06,29,06,13,14.30
2016,06,29,06,14,14.30
2016,06,29,06,15,14.30
2016,06,29,06,16,14.30
2016,06,29,06,17,14.30
2016,06,29,06,18,14.30
2016,06,29,06,19,14.30
2016,06,29,06,20,14.30
2016,06,29,06,21,14.30
2016,06,29,06,22,14.30
2016,06,29,06,23,14.30
2016,06,29,06,24,14.30
2016,06,29,06,25,14.20
2016,06,29,06,26,14.30
2016,06,29,06,27,14.30
2016,06,29,06,28,14.30
2016,06,29,06,29,14.30
2016,06,29,06,30,14.30
2016,06,29,06,31,14.30
2016,06,29,06,32,14.30
2016,06,29,06,33,14.30
2016,06,29,06,34,14.30
2016,06,29,06,35,14.30
2016,06,29,06,36,14.30
2016,06,29,06,37,14.30
2016,06,29,06,38,14.30
2016,06,29,06,39,14.30
2016,06,29,06,40,14.30
2016,06,29,06,41,14.30
2016,06,29,06,42,14.30
2016,06,29,06,43,14.30
2016,06,29,06,44,14.30
2016,06,29,06,45,14.30
2016,06,29,06,46,14.30
2016,06,29,06,47,14.30
2016,06,29,06,48,14.30
2016,06,29,06,49,14.30
2016,06,29,06,50,14.30
2016,06,29,06,51,14.30
2016,06,29,06,52,14.30
2016,06,29,06,53,14.30
2016,06,29,06,54,14.30
2016,06,29,06,55,14.30
2016,06,29,06,56,14.30
2016,06,29,06,57,14.30
2016,06,29,06,58,14.30
2016,06,29,06,59,14.30
2016,06,29,07,00,14.40
2016,06,29,07,01,14.40
2016,06,29,07,02,14.40
2016,06,29,07,03,14.40
2016,06,29,07,04,14.40
2016,06,29,07,05,14.40
2016,06,29,07,06,14.40
2016,06,29,07,07,14.40
2016,06,29,07,08,14.40
2016,06,29,07,09,14.40
2016,06,29,07,10,14.40
2016,06,29,07,11,14.40
2016,06,29,07,12,14.40
2016,06,29,07,13,14.40
2016,06,29,07,14,14.40
2016,06,29,07,15,14.40
2016,06,29,07,16,14.40
2016,06,29,07,17,14.40
2016,06,29,07,18,14.40
2016,06,29,07,19,14.40
2016,06,29,07,20,14.40
2016,06,29,07,21,14.40
2016,06,29,07,22,14.40
2016,06,29,07,23,14.40
2016,06,29,07,24,14.40
2016,06,29,07,25,14.40
2016,06,29,07,26,14.50
2016,06,29,07,27,14.50
2016,06,29,07,28,14.50
2016,06,29,07,29,14.50
2016,06,29,07,30,14.50
2016,06,29,07,31,14.50
2016,06,29,07,32,14.50
2016,06,29,07,33,14.50
2016,06,29,07,34,14.50
2016,06,29,07,35,14.50
2016,06,29,07,36,14.50
2016,06,29,07,37,14.50
2016,06,29,07,38,14.50
2016,06,29,07,39,14.50
2016,06,29,07,40,14.60
2016,06,29,07,41,14.60
2016,06,29,07,42,14.60
2016,06,29,07,43,14.60
2016,06,29,07,44,14.60
2016,06,29,07,45,14.60
2016,06,29,07,46,14.60
2016,06,29,07,47,14.70
2016,06,29,07,48,14.70
2016,06,29,07,49,14.70
2016,06,29,07,50,14.70
2016,06,29,07,51,14.70
2016,06,29,07,52,14.80
2016,06,29,07,53,14.80
2016,06,29,07,54,14.80
2016,06,29,07,55,14.80
2016,06,29,07,56,14.80
2016,06,29,07,57,14.80
2016,06,29,07,58,14.80
2016,06,29,07,59,14.80
2016,06,29,08,00,14.80
2016,06,29,08,01,14.70
2016,06,29,08,02,14.80
2016,06,29,08,03,14.80
2016,06,29,08,04,14.80
2016,06,29,08,05,14.80
2016,06,29,08,06,14.70
2016,06,29,08,07,14.70
2016,06,29,08,08,14.70
2016,06,29,08,09,14.70
2016,06,29,08,10,14.70
2016,06,29,08,11,14.70
2016,06,29,08,12,14.70
2016,06,29,08,13,14.70
2016,06,29,08,14,14.70
2016,06,29,08,15,14.70
2016,06,29,08,16,14.70
2016,06,29,08,17,14.70
2016,06,29,08,18,14.70
2016,06,29,08,19,14.80
2016,06,29,08,20,14.80
2016,06,29,08,21,14.80
2016,06,29,08,22,14.80
2016,06,29,08,23,14.80
2016,06,29,08,24,14.80
2016,06,29,08,25,14.90
2016,06,29,08,26,14.90
2016,06,29,08,27,14.90
2016,06,29,08,28,14.90
2016,06,29,08,29,15.00
2016,06,29,08,30,15.00
2016,06,29,08,31,15.00
2016,06,29,08,32,15.00
2016,06,29,08,33,15.00
2016,06,29,08,34,15.00
2016,06,29,08,35,15.00
2016,06,29,08,36,15.00
2016,06,29,08,37,15.10
2016,06,29,08,38,15.00
2016,06,29,08,39,15.10
2016,06,29,08,40,15.10
2016,06,29,08,41,15.10
2016,06,29,08,42,15.10
2016,06,29,08,43,15.10
2016,06,29,08,44,15.10
2016,06,29,08,45,15.10
2016,06,29,08,46,15.10
2016,06,29,08,47,15.10
2016,06,29,08,48,15.10
2016,06,29,08,49,15.10
2016,06,29,08,50,15.10
2016,06,29,08,51,15.10
2016,06,29,08,52,15.10
2016,06,29,08,53,15.10
2016,06,29,08,54,15.10
2016,06,29,08,55,15.20
2016,06,29,08,56,15.20
2016,06,29,08,57,15.20
2016,06,29,08,58,15.20
2016,06,29,08,59,15.20
2016,06,29,09,00,15.20
2016,06,29,09,01,15.20
2016,06,29,09,02,15.20
2016,06,29,09,03,15.20
2016,06,29,09,04,15.20
2016,06,29,09,05,15.20
2016,06,29,09,06,15.20
2016,06,29,09,07,15.20
2016,06,29,09,08,15.20
2016,06,29,09,09,15.10
2016,06,29,09,10,15.10
2016,06,29,09,11,15.10
2016,06,29,09,12,15.10
2016,06,29,09,13,15.10
2016,06,29,09,14,15.10
2016,06,29,09,15,15.10
2016,06,29,09,16,15.10
2016,06,29,09,17,15.10
2016,06,29,09,18,15.10
2016,06,29,09,19,15.20
2016,06,29,09,20,15.20
2016,06,29,09,21,15.20
2016,06,29,09,22,15.20
2016,06,29,09,23,15.30
2016,06,29,09,24,15.30
2016,06,29,09,25,15.30
2016,06,29,09,26,15.30
2016,06,29,09,27,15.40
2016,06,29,09,28,15.40
2016,06,29,09,29,15.40
2016,06,29,09,30,15.40
2016,06,29,09,31,15.40
2016,06,29,09,32,15.40
2016,06,29,09,33,15.40
2016,06,29,09,34,15.50
2016,06,29,09,35,15.50
2016,06,29,09,36,15.60
2016,06,29,09,37,15.60
2016,06,29,09,38,15.60
2016,06,29,09,39,15.60
2016,06,29,09,40,15.60
2016,06,29,09,41,15.70
2016,06,29,09,42,15.70
2016,06,29,09,43,15.70
2016,06,29,09,44,15.70
2016,06,29,09,45,15.80
2016,06,29,09,46,15.80
2016,06,29,09,47,15.80
2016,06,29,09,48,15.90
2016,06,29,09,49,15.90
2016,06,29,09,50,16.00
2016,06,29,09,51,16.00
2016,06,29,09,52,16.00
2016,06,29,09,53,16.10
2016,06,29,09,54,16.10
2016,06,29,09,55,16.10
2016,06,29,09,56,16.10
2016,06,29,09,57,16.20
2016,06,29,09,58,16.20
2016,06,29,09,59,16.30
2016,06,29,10,00,16.30
2016,06,29,10,01,16.30
2016,06,29,10,02,16.30
2016,06,29,10,03,16.40
2016,06,29,10,04,16.40
2016,06,29,10,05,16.40
2016,06,29,10,06,16.50
2016,06,29,10,07,16.60
2016,06,29,10,08,16.60
2016,06,29,10,09,16.70
2016,06,29,10,10,16.80
2016,06,29,10,11,16.90
2016,06,29,10,12,17.00
2016,06,29,10,13,17.10
2016,06,29,10,14,17.20
2016,06,29,10,15,17.30
2016,06,29,10,16,17.40
2016,06,29,10,17,17.40
2016,06,29,10,18,17.60
2016,06,29,10,19,17.70
2016,06,29,10,20,17.80
2016,06,29,10,21,17.90
2016,06,29,10,22,18.10
2016,06,29,10,23,18.10
2016,06,29,10,24,18.20
2016,06,29,10,25,18.30
2016,06,29,10,26,18.40
2016,06,29,10,27,18.40
2016,06,29,10,28,18.60
2016,06,29,10,29,18.60
2016,06,29,10,30,18.80
2016,06,29,10,31,18.80
2016,06,29,10,32,18.90
2016,06,29,10,33,19.00
2016,06,29,10,34,19.10
2016,06,29,10,35,19.10
2016,06,29,10,36,19.10
2016,06,29,10,37,19.20
2016,06,29,10,38,19.20
2016,06,29,10,39,19.20
2016,06,29,10,40,19.20
2016,06,29,10,41,19.30
2016,06,29,10,42,19.30
2016,06,29,10,43,19.30
2016,06,29,10,44,19.30
2016,06,29,10,45,19.30
2016,06,29,10,46,19.30
2016,06,29,10,47,19.30
2016,06,29,10,48,19.40
2016,06,29,10,49,19.30
2016,06,29,10,50,19.30
2016,06,29,10,51,19.40
2016,06,29,10,52,19.40
2016,06,29,10,53,19.40
2016,06,29,10,54,19.50
2016,06,29,10,55,19.60
2016,06,29,10,56,19.60
2016,06,29,10,57,19.70
2016,06,29,10,58,19.70
2016,06,29,10,59,19.60
2016,06,29,11,00,19.40
2016,06,29,11,01,19.30
2016,06,29,11,02,19.20
2016,06,29,11,03,19.00
2016,06,29,11,04,18.90
2016,06,29,11,05,18.80
2016,06,29,11,06,18.80
2016,06,29,11,07,18.80
2016,06,29,11,08,18.70
2016,06,29,11,09,18.70
2016,06,29,11,10,18.60
2016,06,29,11,11,18.60
2016,06,29,11,12,18.40
2016,06,29,11,13,18.40
2016,06,29,11,14,18.40
2016,06,29,11,15,18.40
2016,06,29,11,16,18.50
2016,06,29,11,17,18.60
2016,06,29,11,18,18.70
2016,06,29,11,19,18.80
2016,06,29,11,20,18.90
2016,06,29,11,21,18.90
2016,06,29,11,22,19.10
2016,06,29,11,23,19.10
2016,06,29,11,24,19.10
2016,06,29,11,25,19.20
2016,06,29,11,26,19.20
2016,06,29,11,27,19.30
2016,06,29,11,28,19.40
2016,06,29,11,29,19.40
2016,06,29,11,30,19.40
2016,06,29,11,31,19.40
2016,06,29,11,32,19.50
2016,06,29,11,33,19.60
2016,06,29,11,34,19.70
2016,06,29,11,35,19.80
2016,06,29,11,36,19.90
2016,06,29,11,37,20.10
2016,06,29,11,38,20.10
2016,06,29,11,39,20.20
2016,06,29,11,40,20.20
2016,06,29,11,41,20.30
2016,06,29,11,42,20.40
2016,06,29,11,43,20.50
2016,06,29,11,44,20.70
2016,06,29,11,45,20.80
2016,06,29,11,46,20.90
2016,06,29,11,47,21.00
2016,06,29,11,48,21.10
2016,06,29,11,49,21.20
2016,06,29,11,50,21.30
2016,06,29,11,51,21.40
2016,06,29,11,52,21.50
2016,06,29,11,53,21.60
2016,06,29,11,54,21.60
2016,06,29,11,55,21.60
2016,06,29,11,56,21.60
2016,06,29,11,57,21.70
2016,06,29,11,58,21.80
2016,06,29,11,59,21.90
2016,06,29,12,00,21.90
2016,06,29,12,01,21.90
2016,06,29,12,02,21.90
2016,06,29,12,03,22.00
2016,06,29,12,04,22.00
2016,06,29,12,05,22.10
2016,06,29,12,06,22.20
2016,06,29,12,07,22.20
2016,06,29,12,08,22.40
2016,06,29,12,09,22.50
2016,06,29,12,10,22.60
2016,06,29,12,11,22.80
2016,06,29,12,12,22.80
2016,06,29,12,13,22.90
2016,06,29,12,14,22.90
2016,06,29,12,15,22.90
2016,06,29,12,16,22.90
2016,06,29,12,17,22.90
2016,06,29,12,18,22.90
2016,06,29,12,19,22.80
2016,06,29,12,20,22.70
2016,06,29,12,21,22.70
2016,06,29,12,22,22.70
2016,06,29,12,23,22.70
2016,06,29,12,24,22.70
2016,06,29,12,25,22.70
2016,06,29,12,26,22.80
2016,06,29,12,27,22.80
2016,06,29,12,28,22.80
2016,06,29,12,29,22.70
2016,06,29,12,30,22.70
2016,06,29,12,31,22.80
2016,06,29,12,32,22.70
2016,06,29,12,33,22.80
2016,06,29,12,34,22.80
2016,06,29,12,35,22.90
2016,06,29,12,36,22.90
2016,06,29,12,37,22.90
2016,06,29,12,38,22.90
2016,06,29,12,39,22.90
2016,06,29,12,40,22.80
2016,06,29,12,41,22.70
2016,06,29,12,42,22.60
2016,06,29,12,43,22.60
2016,06,29,12,44,22.60
2016,06,29,12,45,22.60
2016,06,29,12,46,22.70
2016,06,29,12,47,22.80
2016,06,29,12,48,22.80
2016,06,29,12,49,22.90
2016,06,29,12,50,23.10
2016,06,29,12,51,23.30
2016,06,29,12,52,23.50
2016,06,29,12,53,23.60
2016,06,29,12,54,23.60
2016,06,29,12,55,23.60
2016,06,29,12,56,23.60
2016,06,29,12,57,23.60
2016,06,29,12,58,23.60
2016,06,29,12,59,23.60
2016,06,29,13,00,23.60
2016,06,29,13,01,23.60
2016,06,29,13,02,23.60
2016,06,29,13,03,23.60
2016,06,29,13,04,23.70
2016,06,29,13,05,23.90
2016,06,29,13,06,24.10
2016,06,29,13,07,24.20
2016,06,29,13,08,24.30
2016,06,29,13,09,24.40
2016,06,29,13,10,24.60
2016,06,29,13,11,24.70
2016,06,29,13,12,24.80
2016,06,29,13,13,24.90
2016,06,29,13,14,25.00
2016,06,29,13,15,25.10
2016,06,29,13,16,25.20
2016,06,29,13,17,25.20
2016,06,29,13,18,25.30
2016,06,29,13,19,25.30
2016,06,29,13,20,25.30
2016,06,29,13,21,25.30
2016,06,29,13,22,25.30
2016,06,29,13,23,25.30
2016,06,29,13,24,25.30
2016,06,29,13,25,25.30
2016,06,29,13,26,25.40
2016,06,29,13,27,25.40
2016,06,29,13,28,25.40
2016,06,29,13,29,25.20
2016,06,29,13,30,25.10
2016,06,29,13,31,25.00
2016,06,29,13,32,24.90
2016,06,29,13,33,24.90
2016,06,29,13,34,24.90
2016,06,29,13,35,24.90
2016,06,29,13,36,24.80
2016,06,29,13,37,24.80
2016,06,29,13,38,24.70
2016,06,29,13,39,24.70
2016,06,29,13,40,24.70
2016,06,29,13,41,24.70
2016,06,29,13,42,24.80
2016,06,29,13,43,25.00
2016,06,29,13,44,25.10
2016,06,29,13,45,25.20
2016,06,29,13,46,25.30
2016,06,29,13,47,25.50
2016,06,29,13,48,25.60
2016,06,29,13,49,25.70
2016,06,29,13,50,25.80
2016,06,29,13,51,25.90
2016,06,29,13,52,25.90
2016,06,29,13,53,26.00
2016,06,29,13,54,26.10
2016,06,29,13,55,26.20
2016,06,29,13,56,26.30
2016,06,29,13,57,26.30
2016,06,29,13,58,26.20
2016,06,29,13,59,26.10
2016,06,29,14,00,26.10
2016,06,29,14,01,26.10
2016,06,29,14,02,26.10
2016,06,29,14,03,26.10
2016,06,29,14,04,26.20
2016,06,29,14,05,26.30
2016,06,29,14,06,26.20
2016,06,29,14,07,26.00
2016,06,29,14,08,25.80
2016,06,29,14,09,25.80
2016,06,29,14,10,25.90
2016,06,29,14,11,25.90
2016,06,29,14,12,26.10
2016,06,29,14,13,26.30
2016,06,29,14,14,26.40
2016,06,29,14,15,26.40
2016,06,29,14,16,26.40
2016,06,29,14,17,26.40
2016,06,29,14,18,26.50
2016,06,29,14,19,26.60
2016,06,29,14,20,26.50
2016,06,29,14,21,26.50
2016,06,29,14,22,26.60
2016,06,29,14,23,26.60
2016,06,29,14,24,26.60
2016,06,29,14,25,26.70
2016,06,29,14,26,26.70
2016,06,29,14,27,26.70
2016,06,29,14,28,26.70
2016,06,29,14,29,26.70
2016,06,29,14,30,26.60
2016,06,29,14,31,26.60
2016,06,29,14,32,26.70
2016,06,29,14,33,26.70
2016,06,29,14,34,26.60
2016,06,29,14,35,26.60
2016,06,29,14,36,26.70
2016,06,29,14,37,26.50
2016,06,29,14,38,26.30
2016,06,29,14,39,26.20
2016,06,29,14,40,26.10
2016,06,29,14,41,26.10
2016,06,29,14,42,25.90
2016,06,29,14,43,25.80
2016,06,29,14,44,25.90
2016,06,29,14,45,25.90
2016,06,29,14,46,25.90
2016,06,29,14,47,26.10
2016,06,29,14,48,26.20
2016,06,29,14,49,26.20
2016,06,29,14,50,26.20
2016,06,29,14,51,26.20
2016,06,29,14,52,26.20
2016,06,29,14,53,26.20
2016,06,29,14,54,26.10
2016,06,29,14,55,26.10
2016,06,29,14,56,26.10
2016,06,29,14,57,26.00
2016,06,29,14,58,26.00
2016,06,29,14,59,26.10
2016,06,29,15,00,26.20
2016,06,29,15,01,26.30
2016,06,29,15,02,26.40
2016,06,29,15,03,26.50
2016,06,29,15,04,26.50
2016,06,29,15,05,26.20
2016,06,29,15,06,26.10
2016,06,29,15,07,25.90
2016,06,29,15,08,25.90
2016,06,29,15,09,25.80
2016,06,29,15,10,25.80
2016,06,29,15,11,25.80
2016,06,29,15,12,25.80
2016,06,29,15,13,25.70
2016,06,29,15,14,25.40
2016,06,29,15,15,25.20
2016,06,29,15,16,24.90
2016,06,29,15,17,24.70
2016,06,29,15,18,24.60
2016,06,29,15,19,24.40
2016,06,29,15,20,24.30
2016,06,29,15,21,24.30
2016,06,29,15,22,24.20
2016,06,29,15,23,24.20
2016,06,29,15,24,24.20
2016,06,29,15,25,24.10
2016,06,29,15,26,24.10
2016,06,29,15,27,24.00
2016,06,29,15,28,24.00
2016,06,29,15,29,24.10
2016,06,29,15,30,24.10
2016,06,29,15,31,23.90
2016,06,29,15,32,23.80
2016,06,29,15,33,23.80
2016,06,29,15,34,23.60
2016,06,29,15,35,23.60
2016,06,29,15,36,23.60
2016,06,29,15,37,23.50
2016,06,29,15,38,23.50
2016,06,29,15,39,23.60
2016,06,29,15,40,23.40
2016,06,29,15,41,23.40
2016,06,29,15,42,23.30
2016,06,29,15,43,23.20
2016,06,29,15,44,23.10
2016,06,29,15,45,23.00
2016,06,29,15,46,23.00
2016,06,29,15,47,22.90
2016,06,29,15,48,23.00
2016,06,29,15,49,22.90
2016,06,29,15,50,22.90
2016,06,29,15,51,22.90
2016,06,29,15,52,22.90
2016,06,29,15,53,22.90
2016,06,29,15,54,23.10
2016,06,29,15,55,23.10
2016,06,29,15,56,23.10
2016,06,29,15,57,23.00
2016,06,29,15,58,22.90
2016,06,29,15,59,23.00
2016,06,29,16,00,23.10
2016,06,29,16,01,23.10
2016,06,29,16,02,23.00
2016,06,29,16,03,23.00
2016,06,29,16,04,22.90
2016,06,29,16,05,22.80
2016,06,29,16,06,22.80
2016,06,29,16,07,22.80
2016,06,29,16,08,22.80
2016,06,29,16,09,22.80
2016,06,29,16,10,22.80
2016,06,29,16,11,22.90
2016,06,29,16,12,22.90
2016,06,29,16,13,22.90
2016,06,29,16,14,22.90
2016,06,29,16,15,22.90
2016,06,29,16,16,22.90
2016,06,29,16,17,22.90
2016,06,29,16,18,22.90
2016,06,29,16,19,22.90
2016,06,29,16,20,22.90
2016,06,29,16,21,22.80
2016,06,29,16,22,22.80
2016,06,29,16,23,22.80
2016,06,29,16,24,22.80
2016,06,29,16,25,22.90
2016,06,29,16,26,23.00
2016,06,29,16,27,23.00
2016,06,29,16,28,23.00
2016,06,29,16,29,23.00
2016,06,29,16,30,23.10
2016,06,29,16,31,23.10
2016,06,29,16,32,22.90
2016,06,29,16,33,22.90
2016,06,29,16,34,22.90
2016,06,29,16,35,22.90
2016,06,29,16,36,22.80
2016,06,29,16,37,22.70
2016,06,29,16,38,22.60
2016,06,29,16,39,22.60
2016,06,29,16,40,22.60
2016,06,29,16,41,22.60
2016,06,29,16,42,22.50
2016,06,29,16,43,22.40
2016,06,29,16,44,22.40
2016,06,29,16,45,22.40
2016,06,29,16,46,22.40
2016,06,29,16,47,22.60
2016,06,29,16,48,22.70
2016,06,29,16,49,22.80
2016,06,29,16,50,22.80
2016,06,29,16,51,22.70
2016,06,29,16,52,22.60
2016,06,29,16,53,22.60
2016,06,29,16,54,22.70
2016,06,29,16,55,22.70
2016,06,29,16,56,22.70
2016,06,29,16,57,22.80
2016,06,29,16,58,22.70
2016,06,29,16,59,22.60
2016,06,29,17,00,22.60
2016,06,29,17,01,22.70
2016,06,29,17,02,22.80
2016,06,29,17,03,22.90
2016,06,29,17,04,23.00
2016,06,29,17,05,23.10
2016,06,29,17,06,23.20
2016,06,29,17,07,23.20
2016,06,29,17,08,23.30
2016,06,29,17,09,23.30
2016,06,29,17,10,23.30
2016,06,29,17,11,23.20
2016,06,29,17,12,23.10
2016,06,29,17,13,22.90
2016,06,29,17,14,22.90
2016,06,29,17,15,22.90
2016,06,29,17,16,22.90
2016,06,29,17,17,23.00
2016,06,29,17,18,23.00
2016,06,29,17,19,22.90